Time,TemperatureF,DewpointF,PressureIn,WindDirection,WindDirectionDegrees,WindSpeedMPH,WindSpeedGustMPH,Humidity,HourlyPrecipIn,Conditions,Clouds,dailyrainin,SoftwareType,DateUTC
2013-03-06 00:00:00,27.3,25.9,30.08,ENE,67,0.0,1.0,94,0.00,,,0.00,meteohub,2013-03-06 05:00:00,
2013-03-06 00:02:00,27.3,25.5,30.08,ENE,67,0.0,1.0,93,0.00,,,0.00,meteohub,2013-03-06 05:02:00,
2013-03-06 00:03:00,27.3,25.5,30.08,ENE,67,0.0,1.0,93,0.00,,,0.00,meteohub,2013-03-06 05:03:00,
2013-03-06 00:05:00,27.1,25.3,30.08,ENE,67,0.0,0.0,93,0.00,,,0.00,meteohub,2013-03-06 05:05:00,
2013-03-06 00:10:00,27.3,25.5,30.08,ENE,67,0.0,0.0,93,0.00,,,0.00,meteohub,2013-03-06 05:10:00,
2013-03-06 00:15:00,27.3,25.5,30.08,ENE,67,0.0,1.0,93,0.00,,,0.00,meteohub,2013-03-06 05:15:00,
2013-03-06 00:20:00,27.5,25.7,30.08,ENE,67,0.0,1.0,93,0.00,,,0.00,meteohub,2013-03-06 05:20:00,
2013-03-06 00:25:00,27.7,25.9,30.08,ENE,67,0.0,1.0,93,0.00,,,0.00,meteohub,2013-03-06 05:25:00,
2013-03-06 00:30:00,27.7,25.9,30.08,NE,51,0.0,1.0,93,0.00,,,0.00,meteohub,2013-03-06 05:30:00,
2013-03-06 00:35:00,27.9,26.1,30.09,NE,51,0.0,1.0,93,0.00,,,0.00,meteohub,2013-03-06 05:35:00,
2013-03-06 00:40:00,27.9,26.1,30.09,NE,51,0.0,1.0,93,0.00,,,0.00,meteohub,2013-03-06 05:40:00,
2013-03-06 00:45:00,27.9,26.1,30.08,NE,51,0.0,0.0,93,0.00,,,0.00,meteohub,2013-03-06 05:45:00,
2013-03-06 00:51:00,27.9,26.1,30.08,NE,51,0.0,0.0,93,0.00,,,0.00,meteohub,2013-03-06 05:51:00,
2013-03-06 00:56:00,27.9,26.1,30.08,NE,51,0.0,0.0,93,0.00,,,0.00,meteohub,2013-03-06 05:56:00,
2013-03-06 01:01:00,28.0,26.2,30.09,NE,51,0.0,0.0,93,0.00,,,0.00,meteohub,2013-03-06 06:01:00,
2013-03-06 01:06:00,28.0,26.2,30.09,NE,51,0.0,0.0,93,0.00,,,0.00,meteohub,2013-03-06 06:06:00,
2013-03-06 01:11:00,28.0,26.2,30.09,NE,51,0.0,0.0,93,0.00,,,0.00,meteohub,2013-03-06 06:11:00,
2013-03-06 01:16:00,28.2,26.4,30.09,NE,51,0.0,0.0,93,0.00,,,0.00,meteohub,2013-03-06 06:16:00,
2013-03-06 01:21:00,28.2,26.4,30.09,NE,51,0.0,1.0,93,0.00,,,0.00,meteohub,2013-03-06 06:21:00,
2013-03-06 01:26:00,28.2,26.2,30.09,NE,51,0.0,1.0,92,0.00,,,0.00,meteohub,2013-03-06 06:26:00,
2013-03-06 01:31:00,28.2,26.4,30.09,NE,51,0.0,1.0,93,0.00,,,0.00,meteohub,2013-03-06 06:31:00,
2013-03-06 01:36:00,28.2,26.4,30.09,NE,51,0.0,0.0,93,0.00,,,0.00,meteohub,2013-03-06 06:36:00,
2013-03-06 01:41:00,28.2,26.4,30.08,NE,51,0.0,0.0,93,0.00,,,0.00,meteohub,2013-03-06 06:41:00,
2013-03-06 01:46:00,28.2,26.4,30.08,NE,51,0.0,0.0,93,0.00,,,0.00,meteohub,2013-03-06 06:46:00,
2013-03-06 01:51:00,28.2,26.2,30.08,NE,51,0.0,0.0,92,0.00,,,0.00,meteohub,2013-03-06 06:51:00,
2013-03-06 01:56:00,28.2,26.2,30.08,NE,51,0.0,0.0,92,0.00,,,0.00,meteohub,2013-03-06 06:56:00,
2013-03-06 02:01:00,28.2,26.4,30.07,NE,51,0.0,1.0,93,0.00,,,0.00,meteohub,2013-03-06 07:01:00,
2013-03-06 02:06:00,28.4,26.6,30.07,NE,51,0.0,1.0,93,0.00,,,0.00,meteohub,2013-03-06 07:06:00,
2013-03-06 02:11:00,28.4,26.6,30.07,NE,51,0.0,1.0,93,0.00,,,0.00,meteohub,2013-03-06 07:11:00,
2013-03-06 02:16:00,28.4,26.6,30.06,NE,51,0.0,1.0,93,0.00,,,0.00,meteohub,2013-03-06 07:16:00,
2013-03-06 02:21:00,28.6,26.8,30.07,NE,51,0.0,0.0,93,0.00,,,0.00,meteohub,2013-03-06 07:21:00,
2013-03-06 02:27:00,28.6,26.8,30.07,NE,51,0.0,0.0,93,0.00,,,0.00,meteohub,2013-03-06 07:27:00,
2013-03-06 02:32:00,28.8,27.0,30.07,NE,52,0.0,0.0,93,0.00,,,0.00,meteohub,2013-03-06 07:32:00,
2013-03-06 02:37:00,28.8,27.0,30.07,ENE,59,0.0,0.0,93,0.00,,,0.00,meteohub,2013-03-06 07:37:00,
2013-03-06 02:42:00,28.8,27.0,30.07,ENE,60,0.0,1.0,93,0.00,,,0.00,meteohub,2013-03-06 07:42:00,
2013-03-06 02:47:00,28.8,27.0,30.07,NE,47,0.0,1.0,93,0.00,,,0.00,meteohub,2013-03-06 07:47:00,
2013-03-06 02:52:00,28.8,27.0,30.07,WNW,301,1.0,1.0,93,0.00,,,0.00,meteohub,2013-03-06 07:52:00,
2013-03-06 02:57:00,28.9,27.1,30.07,WNW,301,0.0,2.0,93,0.00,,,0.00,meteohub,2013-03-06 07:57:00,
2013-03-06 03:02:00,28.8,27.0,30.06,WNW,301,1.0,2.0,93,0.00,,,0.00,meteohub,2013-03-06 08:02:00,
2013-03-06 03:07:00,28.8,27.0,30.06,WNW,301,0.0,2.0,93,0.00,,,0.00,meteohub,2013-03-06 08:07:00,
2013-03-06 03:12:00,28.9,27.1,30.07,NNW,332,0.0,2.0,93,0.00,,,0.00,meteohub,2013-03-06 08:12:00,
2013-03-06 03:17:00,28.9,27.1,30.07,WNW,301,2.0,2.0,93,0.00,,,0.00,meteohub,2013-03-06 08:17:00,
2013-03-06 03:22:00,29.1,27.3,30.07,WNW,295,0.0,3.0,93,0.00,,,0.00,meteohub,2013-03-06 08:22:00,
2013-03-06 03:27:00,29.3,27.5,30.07,SSE,154,0.0,3.0,93,0.00,,,0.00,meteohub,2013-03-06 08:27:00,
2013-03-06 03:32:00,29.7,28.2,30.07,ESE,122,1.0,3.0,94,0.00,,,0.00,meteohub,2013-03-06 08:32:00,
2013-03-06 03:37:00,30.0,28.6,30.08,SE,140,0.0,3.0,94,0.00,,,0.00,meteohub,2013-03-06 08:37:00,
2013-03-06 03:42:00,30.6,29.1,30.08,South,189,0.0,4.0,94,0.00,,,0.00,meteohub,2013-03-06 08:42:00,
2013-03-06 03:47:00,30.9,29.5,30.08,ESE,119,0.0,4.0,94,0.00,,,0.00,meteohub,2013-03-06 08:47:00,
2013-03-06 03:52:00,31.5,30.0,30.08,NNE,18,2.0,4.0,94,0.00,,,0.00,meteohub,2013-03-06 08:52:00,
2013-03-06 03:57:00,31.8,30.4,30.08,NNW,339,0.0,3.0,94,0.00,,,0.00,meteohub,2013-03-06 08:57:00,
2013-03-06 04:02:00,32.2,30.4,30.08,NW,318,0.0,2.0,93,0.00,,,0.00,meteohub,2013-03-06 09:02:00,
2013-03-06 04:07:00,32.2,30.4,30.08,NNW,340,0.0,2.0,93,0.00,,,0.00,meteohub,2013-03-06 09:07:00,
2013-03-06 04:12:00,32.0,30.0,30.08,NNW,340,0.0,2.0,92,0.00,,,0.00,meteohub,2013-03-06 09:12:00,
2013-03-06 04:17:00,31.8,30.0,30.08,NNW,329,2.0,2.0,93,0.00,,,0.00,meteohub,2013-03-06 09:17:00,
2013-03-06 04:22:00,31.8,30.0,30.08,WNW,283,1.0,2.0,93,0.00,,,0.00,meteohub,2013-03-06 09:22:00,
2013-03-06 04:27:00,32.0,30.2,30.08,West,275,0.0,4.0,93,0.00,,,0.00,meteohub,2013-03-06 09:27:00,
2013-03-06 04:32:00,32.2,30.4,30.08,West,272,0.0,4.0,93,0.00,,,0.00,meteohub,2013-03-06 09:32:00,
2013-03-06 04:37:00,32.4,30.6,30.09,NNW,347,0.0,4.0,93,0.00,,,0.00,meteohub,2013-03-06 09:37:00,
2013-03-06 04:42:00,32.4,30.4,30.09,NNW,333,0.0,3.0,92,0.00,,,0.00,meteohub,2013-03-06 09:42:00,
2013-03-06 04:47:00,32.5,30.6,30.09,NNW,333,0.0,3.0,92,0.00,,,0.00,meteohub,2013-03-06 09:47:00,
2013-03-06 04:52:00,32.5,30.6,30.09,SSE,147,1.0,3.0,92,0.00,,,0.00,meteohub,2013-03-06 09:52:00,
2013-03-06 04:57:00,32.5,30.6,30.08,North,1,2.0,3.0,92,0.00,,,0.00,meteohub,2013-03-06 09:57:00,
2013-03-06 05:02:00,32.5,30.6,30.08,NW,310,0.0,3.0,92,0.00,,,0.00,meteohub,2013-03-06 10:02:00,
2013-03-06 05:07:00,32.5,30.6,30.08,NW,322,1.0,3.0,92,0.00,,,0.00,meteohub,2013-03-06 10:07:00,
2013-03-06 05:12:00,32.4,30.6,30.08,NW,322,1.0,2.0,93,0.00,,,0.00,meteohub,2013-03-06 10:12:00,
2013-03-06 05:17:00,32.2,30.4,30.08,NNW,336,2.0,3.0,93,0.00,,,0.00,meteohub,2013-03-06 10:17:00,
2013-03-06 05:22:00,32.4,30.4,30.08,NNW,345,1.0,3.0,92,0.00,,,0.00,meteohub,2013-03-06 10:22:00,
2013-03-06 05:27:00,32.4,30.6,30.08,North,4,2.0,3.0,93,0.00,,,0.00,meteohub,2013-03-06 10:27:00,
2013-03-06 05:32:00,32.4,30.4,30.08,NNW,347,1.0,3.0,92,0.00,,,0.00,meteohub,2013-03-06 10:32:00,
2013-03-06 05:37:00,32.4,30.4,30.08,NW,309,1.0,3.0,92,0.00,,,0.00,meteohub,2013-03-06 10:37:00,
2013-03-06 05:42:00,32.4,30.6,30.09,NW,309,2.0,3.0,93,0.00,,,0.00,meteohub,2013-03-06 10:42:00,
2013-03-06 05:47:00,32.4,30.6,30.09,NW,309,0.0,3.0,93,0.00,,,0.00,meteohub,2013-03-06 10:47:00,
2013-03-06 05:52:00,32.2,30.4,30.09,NW,311,0.0,3.0,93,0.00,,,0.00,meteohub,2013-03-06 10:52:00,
2013-03-06 05:57:00,32.2,30.4,30.09,NNW,333,0.0,2.0,93,0.00,,,0.00,meteohub,2013-03-06 10:57:00,
2013-03-06 06:02:00,32.2,30.6,30.09,NNW,334,0.0,2.0,94,0.00,,,0.00,meteohub,2013-03-06 11:02:00,
2013-03-06 06:07:00,32.2,30.6,30.09,NW,311,2.0,2.0,94,0.00,,,0.00,meteohub,2013-03-06 11:07:00,
2013-03-06 06:12:00,32.4,30.6,30.09,NW,325,0.0,3.0,93,0.00,,,0.00,meteohub,2013-03-06 11:12:00,
2013-03-06 06:17:00,32.4,30.6,30.09,North,355,2.0,3.0,93,0.00,,,0.00,meteohub,2013-03-06 11:17:00,
2013-03-06 06:22:00,32.4,30.6,30.09,NNW,333,0.0,4.0,93,0.00,,,0.00,meteohub,2013-03-06 11:22:00,
2013-03-06 06:27:00,32.5,30.7,30.09,NNW,341,2.0,4.0,93,0.00,,,0.00,meteohub,2013-03-06 11:27:00,
2013-03-06 06:32:00,32.5,30.7,30.09,SSE,152,1.0,5.0,93,0.00,,,0.00,meteohub,2013-03-06 11:32:00,
2013-03-06 06:37:00,32.5,30.6,30.09,North,353,4.0,9.0,92,0.00,,,0.00,meteohub,2013-03-06 11:37:00,
2013-03-06 06:42:00,32.7,30.4,30.09,NNW,337,4.0,9.0,91,0.00,,,0.00,meteohub,2013-03-06 11:42:00,
2013-03-06 06:47:00,32.9,30.6,30.09,WNW,297,3.0,9.0,91,0.00,,,0.00,meteohub,2013-03-06 11:47:00,
2013-03-06 06:52:00,33.1,30.7,30.09,NNW,330,1.0,4.0,91,0.00,,,0.00,meteohub,2013-03-06 11:52:00,
2013-03-06 06:57:00,33.1,30.7,30.09,NNE,27,2.0,4.0,91,0.00,,,0.00,meteohub,2013-03-06 11:57:00,
2013-03-06 07:02:00,32.9,30.6,30.10,NNW,328,4.0,4.0,91,0.00,,,0.00,meteohub,2013-03-06 12:02:00,
2013-03-06 07:07:00,32.9,30.6,30.09,North,353,1.0,5.0,91,0.00,,,0.00,meteohub,2013-03-06 12:07:00,
2013-03-06 07:12:00,32.9,30.6,30.10,West,276,0.0,5.0,91,0.00,,,0.00,meteohub,2013-03-06 12:12:00,
2013-03-06 07:17:00,32.9,30.6,30.10,North,359,3.0,5.0,91,0.00,,,0.00,meteohub,2013-03-06 12:17:00,
2013-03-06 07:22:00,33.1,30.7,30.10,SE,126,1.0,7.0,91,0.00,,,0.00,meteohub,2013-03-06 12:22:00,
2013-03-06 07:27:00,33.1,30.7,30.10,SW,224,1.0,7.0,91,0.00,,,0.00,meteohub,2013-03-06 12:27:00,
2013-03-06 07:32:00,33.3,30.9,30.11,NNW,347,0.0,7.0,91,0.00,,,0.00,meteohub,2013-03-06 12:32:00,
2013-03-06 07:37:00,33.3,30.9,30.11,ESE,120,1.0,5.0,91,0.00,,,0.00,meteohub,2013-03-06 12:37:00,
2013-03-06 07:42:00,33.3,30.9,30.11,SW,218,1.0,6.0,91,0.00,,,0.00,meteohub,2013-03-06 12:42:00,
2013-03-06 07:47:00,33.3,30.9,30.12,SSE,147,5.0,6.0,91,0.00,,,0.00,meteohub,2013-03-06 12:47:00,
2013-03-06 07:52:00,33.3,30.9,30.12,SE,129,1.0,7.0,91,0.00,,,0.00,meteohub,2013-03-06 12:52:00,
2013-03-06 07:57:00,33.3,30.9,30.12,NW,326,2.0,7.0,91,0.00,,,0.00,meteohub,2013-03-06 12:57:00,
2013-03-06 08:02:00,33.3,30.9,30.12,North,6,1.0,7.0,91,0.00,,,0.00,meteohub,2013-03-06 13:02:00,
2013-03-06 08:07:00,33.3,30.9,30.12,NNW,328,4.0,5.0,91,0.00,,,0.00,meteohub,2013-03-06 13:07:00,
2013-03-06 08:12:00,33.3,30.9,30.13,NW,320,1.0,5.0,91,0.00,,,0.00,meteohub,2013-03-06 13:12:00,
2013-03-06 08:17:00,33.3,30.6,30.13,NNW,345,2.0,5.0,90,0.00,,,0.00,meteohub,2013-03-06 13:17:00,
2013-03-06 08:22:00,33.4,30.7,30.13,NNW,330,3.0,8.0,90,0.00,,,0.00,meteohub,2013-03-06 13:22:00,
2013-03-06 08:27:00,33.4,30.7,30.13,ESE,122,3.0,8.0,90,0.00,,,0.00,meteohub,2013-03-06 13:27:00,
2013-03-06 08:32:00,33.4,30.7,30.13,North,0,4.0,7.0,90,0.00,,,0.00,meteohub,2013-03-06 13:32:00,
2013-03-06 08:37:00,33.4,30.6,30.13,South,179,1.0,7.0,89,0.00,,,0.00,meteohub,2013-03-06 13:37:00,
2013-03-06 08:42:00,33.4,30.6,30.13,NNW,333,3.0,7.0,89,0.00,,,0.00,meteohub,2013-03-06 13:42:00,
2013-03-06 08:47:00,33.6,30.7,30.12,NNW,338,3.0,8.0,89,0.00,,,0.00,meteohub,2013-03-06 13:47:00,
2013-03-06 08:52:00,33.6,30.4,30.13,WSW,256,1.0,8.0,88,0.00,,,0.00,meteohub,2013-03-06 13:52:00,
2013-03-06 08:57:00,33.6,30.4,30.13,NNW,332,5.0,8.0,88,0.00,,,0.00,meteohub,2013-03-06 13:57:00,
2013-03-06 09:02:00,33.6,30.7,30.13,NW,309,3.0,8.0,89,0.00,,,0.00,meteohub,2013-03-06 14:02:00,
2013-03-06 09:07:00,33.6,30.7,30.13,NNW,340,3.0,8.0,89,0.00,,,0.00,meteohub,2013-03-06 14:07:00,
2013-03-06 09:12:00,33.8,30.6,30.13,ESE,119,3.0,8.0,88,0.00,,,0.00,meteohub,2013-03-06 14:12:00,
2013-03-06 09:17:00,34.0,30.6,30.13,SSE,147,1.0,7.0,87,0.00,,,0.00,meteohub,2013-03-06 14:17:00,
2013-03-06 09:22:00,34.0,30.6,30.13,West,280,1.0,8.0,87,0.00,,,0.00,meteohub,2013-03-06 14:22:00,
2013-03-06 09:27:00,34.2,30.7,30.13,SE,140,2.0,8.0,87,0.00,,,0.00,meteohub,2013-03-06 14:27:00,
2013-03-06 09:32:00,34.2,30.7,30.13,WNW,296,2.0,8.0,87,0.00,,,0.00,meteohub,2013-03-06 14:32:00,
2013-03-06 09:37:00,34.2,30.7,30.13,ESE,109,2.0,8.0,87,0.00,,,0.00,meteohub,2013-03-06 14:37:00,
2013-03-06 09:42:00,34.2,30.7,30.13,WNW,295,2.0,9.0,87,0.00,,,0.00,meteohub,2013-03-06 14:42:00,
2013-03-06 09:47:00,34.2,30.4,30.12,SW,223,0.0,9.0,86,0.00,,,0.00,meteohub,2013-03-06 14:47:00,
2013-03-06 09:52:00,34.3,30.6,30.13,SE,135,0.0,10.0,86,0.01,,,0.01,meteohub,2013-03-06 14:52:00,
2013-03-06 09:57:00,34.5,30.6,30.13,North,1,1.0,10.0,85,0.01,,,0.01,meteohub,2013-03-06 14:57:00,
2013-03-06 10:02:00,34.3,30.4,30.13,SSE,151,0.0,10.0,85,0.01,,,0.01,meteohub,2013-03-06 15:02:00,
2013-03-06 10:07:00,34.2,30.4,30.13,North,8,0.0,9.0,86,0.01,,,0.01,meteohub,2013-03-06 15:07:00,
2013-03-06 10:12:00,34.2,30.4,30.13,SE,145,3.0,12.0,86,0.01,,,0.01,meteohub,2013-03-06 15:12:00,
2013-03-06 10:17:00,34.2,30.2,30.14,NW,307,1.0,12.0,85,0.01,,,0.01,meteohub,2013-03-06 15:17:00,
2013-03-06 10:22:00,34.3,30.6,30.14,SSE,148,2.0,9.0,86,0.01,,,0.01,meteohub,2013-03-06 15:22:00,
2013-03-06 10:27:00,34.5,30.6,30.14,NNW,345,2.0,9.0,85,0.01,,,0.01,meteohub,2013-03-06 15:27:00,
2013-03-06 10:32:00,34.5,30.2,30.14,SSE,160,9.0,9.0,84,0.01,,,0.01,meteohub,2013-03-06 15:32:00,
2013-03-06 10:37:00,34.7,30.0,30.14,East,81,0.0,12.0,83,0.01,,,0.01,meteohub,2013-03-06 15:37:00,
2013-03-06 10:42:00,34.9,30.0,30.14,SE,131,5.0,12.0,82,0.01,,,0.01,meteohub,2013-03-06 15:42:00,
2013-03-06 10:47:00,35.1,30.4,30.14,ESE,112,0.0,12.0,83,0.02,,,0.02,meteohub,2013-03-06 15:47:00,
2013-03-06 10:52:00,34.9,30.0,30.14,SE,126,3.0,9.0,82,0.01,,,0.02,meteohub,2013-03-06 15:52:00,
2013-03-06 10:57:00,34.9,30.0,30.14,WNW,286,2.0,9.0,82,0.01,,,0.02,meteohub,2013-03-06 15:57:00,
2013-03-06 11:02:00,34.7,30.0,30.14,SE,127,2.0,10.0,83,0.01,,,0.02,meteohub,2013-03-06 16:02:00,
2013-03-06 11:07:00,34.9,30.2,30.15,ENE,62,0.0,10.0,83,0.01,,,0.02,meteohub,2013-03-06 16:07:00,
2013-03-06 11:12:00,34.9,29.7,30.14,SE,130,6.0,7.0,81,0.01,,,0.02,meteohub,2013-03-06 16:12:00,
2013-03-06 11:17:00,35.1,30.4,30.14,NNW,328,1.0,13.0,83,0.01,,,0.02,meteohub,2013-03-06 16:17:00,
2013-03-06 11:22:00,35.1,29.8,30.14,NNE,17,5.0,13.0,81,0.01,,,0.02,meteohub,2013-03-06 16:22:00,
2013-03-06 11:27:00,34.9,30.0,30.14,ESE,120,6.0,12.0,82,0.01,,,0.02,meteohub,2013-03-06 16:27:00,
2013-03-06 11:32:00,35.1,29.8,30.14,NNW,334,1.0,12.0,81,0.01,,,0.02,meteohub,2013-03-06 16:32:00,
2013-03-06 11:37:00,35.1,29.5,30.14,NW,313,2.0,12.0,80,0.01,,,0.02,meteohub,2013-03-06 16:37:00,
2013-03-06 11:42:00,35.1,29.1,30.14,SE,133,3.0,11.0,79,0.00,,,0.02,meteohub,2013-03-06 16:42:00,
2013-03-06 11:47:00,35.1,29.1,30.14,SSE,164,3.0,11.0,79,0.00,,,0.02,meteohub,2013-03-06 16:47:00,
2013-03-06 11:52:00,35.1,29.5,30.13,SE,145,2.0,17.0,80,0.00,,,0.02,meteohub,2013-03-06 16:52:00,
2013-03-06 11:57:00,35.2,30.0,30.13,North,352,0.0,17.0,81,0.00,,,0.02,meteohub,2013-03-06 16:57:00,
2013-03-06 12:02:00,35.2,29.3,30.13,ESE,102,7.0,17.0,79,0.01,,,0.03,meteohub,2013-03-06 17:02:00,
2013-03-06 12:07:00,35.2,29.1,30.12,SSE,163,1.0,10.0,78,0.01,,,0.03,meteohub,2013-03-06 17:07:00,
2013-03-06 12:12:00,35.2,29.1,30.13,SE,137,2.0,9.0,78,0.01,,,0.03,meteohub,2013-03-06 17:12:00,
2013-03-06 12:17:00,35.2,29.3,30.13,ESE,114,5.0,8.0,79,0.01,,,0.03,meteohub,2013-03-06 17:17:00,
2013-03-06 12:22:00,35.1,28.9,30.13,ESE,119,5.0,11.0,78,0.01,,,0.03,meteohub,2013-03-06 17:22:00,
2013-03-06 12:27:00,34.9,28.8,30.12,SE,139,8.0,11.0,78,0.01,,,0.03,meteohub,2013-03-06 17:27:00,
2013-03-06 12:32:00,34.7,28.9,30.13,SE,144,5.0,11.0,79,0.01,,,0.03,meteohub,2013-03-06 17:32:00,
2013-03-06 12:37:00,34.5,28.8,30.13,ESE,102,0.0,10.0,79,0.01,,,0.03,meteohub,2013-03-06 17:37:00,
2013-03-06 12:42:00,34.3,28.8,30.13,SE,137,3.0,10.0,80,0.01,,,0.03,meteohub,2013-03-06 17:42:00,
2013-03-06 12:47:00,34.2,28.6,30.13,South,186,0.0,7.0,80,0.01,,,0.03,meteohub,2013-03-06 17:47:00,
2013-03-06 12:52:00,34.0,28.8,30.13,SSE,151,0.0,13.0,81,0.01,,,0.03,meteohub,2013-03-06 17:52:00,
2013-03-06 12:57:00,34.0,28.4,30.14,SE,128,8.0,13.0,80,0.00,,,0.03,meteohub,2013-03-06 17:57:00,
2013-03-06 13:02:00,33.8,28.6,30.13,SE,139,2.0,13.0,81,0.00,,,0.03,meteohub,2013-03-06 18:02:00,
2013-03-06 13:07:00,33.8,28.6,30.14,SSE,148,3.0,10.0,81,0.00,,,0.03,meteohub,2013-03-06 18:07:00,
2013-03-06 13:12:00,33.6,28.8,30.13,NNW,343,0.0,10.0,82,0.00,,,0.03,meteohub,2013-03-06 18:12:00,
2013-03-06 13:17:00,33.4,28.8,30.13,NNW,345,6.0,9.0,83,0.00,,,0.03,meteohub,2013-03-06 18:17:00,
2013-03-06 13:22:00,33.6,28.8,30.13,WNW,290,3.0,9.0,82,0.00,,,0.03,meteohub,2013-03-06 18:22:00,
2013-03-06 13:27:00,33.8,29.1,30.12,North,5,4.0,9.0,83,0.00,,,0.03,meteohub,2013-03-06 18:27:00,
2013-03-06 13:32:00,34.0,28.4,30.12,North,354,6.0,9.0,80,0.00,,,0.03,meteohub,2013-03-06 18:32:00,
2013-03-06 13:37:00,34.3,28.6,30.12,NNW,341,2.0,9.0,79,0.00,,,0.03,meteohub,2013-03-06 18:37:00,
2013-03-06 13:42:00,34.5,28.4,30.12,NW,322,6.0,9.0,78,0.00,,,0.03,meteohub,2013-03-06 18:42:00,
2013-03-06 13:47:00,34.7,28.2,30.12,NW,324,2.0,9.0,77,0.00,,,0.03,meteohub,2013-03-06 18:47:00,
2013-03-06 13:52:00,34.9,28.4,30.13,SE,126,6.0,7.0,77,0.00,,,0.03,meteohub,2013-03-06 18:52:00,
2013-03-06 13:57:00,35.1,28.2,30.12,SE,126,9.0,9.0,76,0.00,,,0.03,meteohub,2013-03-06 18:57:00,
2013-03-06 14:02:00,35.1,28.2,30.13,WNW,295,6.0,10.0,76,0.01,,,0.04,meteohub,2013-03-06 19:02:00,
2013-03-06 14:07:00,35.1,28.9,30.13,SE,144,3.0,10.0,78,0.01,,,0.04,meteohub,2013-03-06 19:07:00,
2013-03-06 14:12:00,35.1,28.6,30.13,NNW,345,1.0,10.0,77,0.01,,,0.04,meteohub,2013-03-06 19:12:00,
2013-03-06 14:17:00,35.1,28.9,30.13,NNW,339,4.0,8.0,78,0.01,,,0.04,meteohub,2013-03-06 19:17:00,
2013-03-06 14:22:00,34.9,28.8,30.13,ESE,114,5.0,10.0,78,0.01,,,0.04,meteohub,2013-03-06 19:22:00,
2013-03-06 14:27:00,34.9,29.1,30.13,NNW,338,0.0,12.0,79,0.01,,,0.04,meteohub,2013-03-06 19:27:00,
2013-03-06 14:32:00,34.7,28.6,30.13,NNW,345,3.0,12.0,78,0.01,,,0.04,meteohub,2013-03-06 19:32:00,
2013-03-06 14:37:00,34.3,28.8,30.13,NNW,336,0.0,12.0,80,0.01,,,0.04,meteohub,2013-03-06 19:37:00,
2013-03-06 14:42:00,34.3,28.8,30.13,SSE,157,0.0,10.0,80,0.01,,,0.04,meteohub,2013-03-06 19:42:00,
2013-03-06 14:47:00,34.5,29.3,30.13,SE,132,0.0,10.0,81,0.01,,,0.04,meteohub,2013-03-06 19:47:00,
2013-03-06 14:52:00,34.5,28.9,30.14,NNW,334,6.0,8.0,80,0.01,,,0.04,meteohub,2013-03-06 19:52:00,
2013-03-06 14:57:00,34.5,28.9,30.13,NW,313,6.0,8.0,80,0.00,,,0.04,meteohub,2013-03-06 19:57:00,
2013-03-06 15:02:00,34.5,28.8,30.13,WNW,302,0.0,7.0,79,0.00,,,0.04,meteohub,2013-03-06 20:02:00,
2013-03-06 15:07:00,34.5,28.8,30.13,ESE,118,3.0,7.0,79,0.00,,,0.04,meteohub,2013-03-06 20:07:00,
2013-03-06 15:12:00,34.9,29.3,30.13,NNW,347,0.0,7.0,80,0.00,,,0.04,meteohub,2013-03-06 20:12:00,
2013-03-06 15:17:00,34.9,29.3,30.13,NNW,333,0.0,7.0,80,0.00,,,0.04,meteohub,2013-03-06 20:17:00,
2013-03-06 15:22:00,34.9,29.3,30.13,SSW,198,1.0,3.0,80,0.00,,,0.04,meteohub,2013-03-06 20:22:00,
2013-03-06 15:28:00,34.9,29.7,30.13,WNW,284,3.0,6.0,81,0.00,,,0.04,meteohub,2013-03-06 20:28:00,
2013-03-06 15:33:00,34.5,29.7,30.13,North,10,4.0,6.0,82,0.00,,,0.04,meteohub,2013-03-06 20:33:00,
2013-03-06 15:38:00,34.3,29.1,30.13,WNW,293,6.0,7.0,81,0.00,,,0.04,meteohub,2013-03-06 20:38:00,
2013-03-06 15:43:00,34.3,29.1,30.13,South,186,0.0,9.0,81,0.00,,,0.04,meteohub,2013-03-06 20:43:00,
2013-03-06 15:48:00,34.3,29.1,30.13,North,1,2.0,9.0,81,0.00,,,0.04,meteohub,2013-03-06 20:48:00,
2013-03-06 15:53:00,34.3,29.1,30.13,NNW,347,1.0,9.0,81,0.00,,,0.04,meteohub,2013-03-06 20:53:00,
2013-03-06 15:58:00,34.3,29.1,30.13,North,357,1.0,8.0,81,0.00,,,0.04,meteohub,2013-03-06 20:58:00,
2013-03-06 16:03:00,34.3,29.1,30.13,SE,136,0.0,6.0,81,0.00,,,0.04,meteohub,2013-03-06 21:03:00,
2013-03-06 16:08:00,34.3,29.1,30.13,SE,126,2.0,8.0,81,0.00,,,0.04,meteohub,2013-03-06 21:08:00,
2013-03-06 16:13:00,34.5,28.9,30.13,North,353,1.0,8.0,80,0.00,,,0.04,meteohub,2013-03-06 21:13:00,
2013-03-06 16:18:00,34.7,29.1,30.13,WNW,303,0.0,8.0,80,0.00,,,0.04,meteohub,2013-03-06 21:18:00,
2013-03-06 16:23:00,34.5,28.9,30.13,NW,323,0.0,6.0,80,0.00,,,0.04,meteohub,2013-03-06 21:23:00,
2013-03-06 16:28:00,34.2,29.3,30.13,North,355,2.0,6.0,82,0.00,,,0.04,meteohub,2013-03-06 21:28:00,
2013-03-06 16:33:00,33.8,28.9,30.13,NNW,334,0.0,5.0,82,0.00,,,0.04,meteohub,2013-03-06 21:33:00,
2013-03-06 16:38:00,33.6,28.8,30.14,SSE,155,1.0,8.0,82,0.00,,,0.04,meteohub,2013-03-06 21:38:00,
2013-03-06 16:43:00,33.6,28.8,30.14,SSE,158,2.0,8.0,82,0.00,,,0.04,meteohub,2013-03-06 21:43:00,
2013-03-06 16:49:00,33.8,28.6,30.14,SSE,161,0.0,9.0,81,0.00,,,0.04,meteohub,2013-03-06 21:49:00,
2013-03-06 16:54:00,34.0,28.8,30.14,East,89,0.0,9.0,81,0.00,,,0.04,meteohub,2013-03-06 21:54:00,
2013-03-06 16:59:00,33.8,28.6,30.15,SSW,204,4.0,9.0,81,0.00,,,0.04,meteohub,2013-03-06 21:59:00,
2013-03-06 17:04:00,33.6,28.4,30.15,SE,133,1.0,8.0,81,0.00,,,0.04,meteohub,2013-03-06 22:04:00,
2013-03-06 17:09:00,33.6,28.8,30.15,NNW,330,1.0,8.0,82,0.00,,,0.04,meteohub,2013-03-06 22:09:00,
2013-03-06 17:14:00,33.4,28.6,30.15,NNE,13,0.0,8.0,82,0.00,,,0.04,meteohub,2013-03-06 22:14:00,
2013-03-06 17:19:00,33.4,28.2,30.15,ESE,117,3.0,8.0,81,0.00,,,0.04,meteohub,2013-03-06 22:19:00,
2013-03-06 17:24:00,33.4,28.2,30.15,SE,132,1.0,7.0,81,0.00,,,0.04,meteohub,2013-03-06 22:24:00,
2013-03-06 17:29:00,33.4,28.2,30.15,NNW,345,2.0,7.0,81,0.00,,,0.04,meteohub,2013-03-06 22:29:00,
2013-03-06 17:34:00,33.4,28.2,30.16,ESE,123,0.0,7.0,81,0.00,,,0.04,meteohub,2013-03-06 22:34:00,
2013-03-06 17:39:00,33.4,27.9,30.16,NW,312,0.0,7.0,80,0.00,,,0.04,meteohub,2013-03-06 22:39:00,
2013-03-06 17:44:00,33.4,27.9,30.16,North,1,1.0,7.0,80,0.00,,,0.04,meteohub,2013-03-06 22:44:00,
2013-03-06 17:49:00,33.4,27.7,30.16,WSW,248,1.0,7.0,79,0.00,,,0.04,meteohub,2013-03-06 22:49:00,
2013-03-06 17:54:00,33.4,27.3,30.15,NNW,342,0.0,6.0,78,0.00,,,0.04,meteohub,2013-03-06 22:54:00,
2013-03-06 17:59:00,33.4,27.7,30.16,NE,51,1.0,7.0,79,0.00,,,0.04,meteohub,2013-03-06 22:59:00,
2013-03-06 18:04:00,33.4,27.7,30.17,WNW,291,0.0,7.0,79,0.00,,,0.04,meteohub,2013-03-06 23:04:00,
2013-03-06 18:09:00,33.4,27.0,30.17,SE,133,1.0,8.0,77,0.00,,,0.04,meteohub,2013-03-06 23:09:00,
2013-03-06 18:14:00,33.3,26.8,30.17,East,84,1.0,9.0,77,0.00,,,0.04,meteohub,2013-03-06 23:14:00,
2013-03-06 18:20:00,33.3,26.8,30.16,WSW,257,5.0,9.0,77,0.00,,,0.04,meteohub,2013-03-06 23:20:00,
2013-03-06 18:25:00,33.3,26.8,30.17,South,189,2.0,9.0,77,0.00,,,0.04,meteohub,2013-03-06 23:25:00,
2013-03-06 18:30:00,33.3,26.8,30.17,ESE,119,1.0,9.0,77,0.00,,,0.04,meteohub,2013-03-06 23:30:00,
2013-03-06 18:35:00,33.1,26.4,30.17,ESE,116,1.0,7.0,76,0.00,,,0.04,meteohub,2013-03-06 23:35:00,
2013-03-06 18:40:00,33.1,26.4,30.17,SE,126,3.0,13.0,76,0.00,,,0.04,meteohub,2013-03-06 23:40:00,
2013-03-06 18:45:00,33.1,27.0,30.17,SSE,164,3.0,13.0,78,0.00,,,0.04,meteohub,2013-03-06 23:45:00,
2013-03-06 18:50:00,32.9,26.8,30.18,SSE,148,0.0,7.0,78,0.00,,,0.04,meteohub,2013-03-06 23:50:00,
2013-03-06 18:55:00,32.9,26.8,30.18,NW,306,6.0,7.0,78,0.00,,,0.04,meteohub,2013-03-06 23:55:00,
2013-03-06 19:00:00,32.7,27.0,30.17,ESE,122,2.0,7.0,79,0.00,,,0.04,meteohub,2013-03-07 00:00:00,
2013-03-06 19:05:00,32.7,27.0,30.18,NNW,341,2.0,7.0,79,0.00,,,0.00,meteohub,2013-03-07 00:05:00,
2013-03-06 19:10:00,32.7,26.2,30.18,NW,306,3.0,9.0,77,0.00,,,0.00,meteohub,2013-03-07 00:10:00,
2013-03-06 19:15:00,32.7,27.0,30.18,NW,322,2.0,9.0,79,0.00,,,0.00,meteohub,2013-03-07 00:15:00,
2013-03-06 19:20:00,32.7,26.6,30.17,SE,126,0.0,9.0,78,0.00,,,0.00,meteohub,2013-03-07 00:20:00,
2013-03-06 19:25:00,32.7,26.2,30.18,West,281,0.0,6.0,77,0.00,,,0.00,meteohub,2013-03-07 00:25:00,
2013-03-06 19:30:00,32.7,26.1,30.17,SE,128,0.0,6.0,76,0.00,,,0.00,meteohub,2013-03-07 00:30:00,
2013-03-06 19:35:00,32.5,26.1,30.18,WNW,296,2.0,6.0,77,0.00,,,0.00,meteohub,2013-03-07 00:35:00,
2013-03-06 19:40:00,32.5,25.9,30.17,NNW,340,3.0,6.0,76,0.00,,,0.00,meteohub,2013-03-07 00:40:00,
2013-03-06 19:45:00,32.4,25.7,30.17,SW,232,4.0,8.0,76,0.00,,,0.00,meteohub,2013-03-07 00:45:00,
2013-03-06 19:50:00,32.4,25.7,30.17,NW,324,0.0,8.0,76,0.00,,,0.00,meteohub,2013-03-07 00:50:00,
2013-03-06 19:55:00,32.4,24.6,30.17,NNW,348,0.0,8.0,73,0.00,,,0.00,meteohub,2013-03-07 00:55:00,
2013-03-06 20:01:00,32.4,24.6,30.16,ESE,103,0.0,9.0,73,0.00,,,0.00,meteohub,2013-03-07 01:01:00,
2013-03-06 20:06:00,32.2,24.3,30.16,SSE,150,0.0,9.0,72,0.00,,,0.00,meteohub,2013-03-07 01:06:00,
2013-03-06 20:11:00,32.2,24.3,30.16,NNW,331,2.0,7.0,72,0.00,,,0.00,meteohub,2013-03-07 01:11:00,
2013-03-06 20:16:00,31.8,24.1,30.16,NE,37,0.0,7.0,73,0.00,,,0.00,meteohub,2013-03-07 01:16:00,
2013-03-06 20:21:00,31.6,23.9,30.16,NW,316,0.0,7.0,73,0.00,,,0.00,meteohub,2013-03-07 01:21:00,
2013-03-06 20:26:00,31.6,23.9,30.16,NNE,20,4.0,7.0,73,0.00,,,0.00,meteohub,2013-03-07 01:26:00,
2013-03-06 20:31:00,31.5,23.9,30.16,North,353,1.0,7.0,73,0.00,,,0.00,meteohub,2013-03-07 01:31:00,
2013-03-06 20:36:00,31.5,24.4,30.16,West,272,1.0,9.0,75,0.00,,,0.00,meteohub,2013-03-07 01:36:00,
2013-03-06 20:41:00,31.5,24.8,30.16,South,178,1.0,9.0,76,0.00,,,0.00,meteohub,2013-03-07 01:41:00,
2013-03-06 20:46:00,31.5,24.4,30.16,SSW,192,1.0,9.0,75,0.00,,,0.00,meteohub,2013-03-07 01:46:00,
2013-03-06 20:51:00,31.5,24.8,30.16,South,178,0.0,5.0,76,0.00,,,0.00,meteohub,2013-03-07 01:51:00,
2013-03-06 20:56:00,31.5,25.2,30.16,NNW,330,2.0,7.0,77,0.00,,,0.00,meteohub,2013-03-07 01:56:00,
2013-03-06 21:01:00,31.5,24.8,30.16,WNW,289,6.0,7.0,76,0.00,,,0.00,meteohub,2013-03-07 02:01:00,
2013-03-06 21:06:00,31.5,25.2,30.16,North,355,2.0,9.0,77,0.00,,,0.00,meteohub,2013-03-07 02:06:00,
2013-03-06 21:11:00,31.5,25.3,30.16,NNW,333,1.0,9.0,78,0.00,,,0.00,meteohub,2013-03-07 02:11:00,
2013-03-06 21:16:00,31.5,25.3,30.16,NW,326,0.0,9.0,78,0.00,,,0.00,meteohub,2013-03-07 02:16:00,
2013-03-06 21:21:00,31.5,25.3,30.15,North,1,0.0,6.0,78,0.00,,,0.00,meteohub,2013-03-07 02:21:00,
2013-03-06 21:26:00,31.5,25.7,30.15,NNW,336,2.0,6.0,79,0.00,,,0.00,meteohub,2013-03-07 02:26:00,
2013-03-06 21:31:00,31.5,25.7,30.15,East,86,0.0,6.0,79,0.00,,,0.00,meteohub,2013-03-07 02:31:00,
2013-03-06 21:36:00,31.5,25.3,30.15,WNW,282,2.0,6.0,78,0.00,,,0.00,meteohub,2013-03-07 02:36:00,
2013-03-06 21:41:00,31.5,25.7,30.15,West,280,4.0,7.0,79,0.00,,,0.00,meteohub,2013-03-07 02:41:00,
2013-03-06 21:46:00,31.5,25.7,30.15,SSE,167,0.0,7.0,79,0.00,,,0.00,meteohub,2013-03-07 02:46:00,
2013-03-06 21:51:00,31.5,25.7,30.15,WNW,284,0.0,5.0,79,0.00,,,0.00,meteohub,2013-03-07 02:51:00,
2013-03-06 21:57:00,31.5,25.7,30.15,NW,307,0.0,5.0,79,0.00,,,0.00,meteohub,2013-03-07 02:57:00,
2013-03-06 22:02:00,31.5,25.3,30.15,WNW,291,1.0,5.0,78,0.00,,,0.00,meteohub,2013-03-07 03:02:00,
2013-03-06 22:07:00,31.5,25.3,30.15,SE,143,2.0,7.0,78,0.00,,,0.00,meteohub,2013-03-07 03:07:00,
2013-03-06 22:12:00,31.3,25.2,30.15,NW,319,3.0,7.0,78,0.00,,,0.00,meteohub,2013-03-07 03:12:00,
2013-03-06 22:17:00,31.3,25.2,30.15,SE,135,0.0,7.0,78,0.00,,,0.00,meteohub,2013-03-07 03:17:00,
2013-03-06 22:22:00,31.3,25.2,30.14,North,353,1.0,6.0,78,0.00,,,0.00,meteohub,2013-03-07 03:22:00,
2013-03-06 22:27:00,31.3,25.0,30.14,NW,320,0.0,6.0,77,0.00,,,0.00,meteohub,2013-03-07 03:27:00,
2013-03-06 22:32:00,31.3,25.2,30.14,NNW,334,0.0,6.0,78,0.00,,,0.00,meteohub,2013-03-07 03:32:00,
2013-03-06 22:37:00,31.1,25.0,30.14,NNW,342,0.0,6.0,78,0.00,,,0.00,meteohub,2013-03-07 03:37:00,
2013-03-06 22:42:00,31.1,25.0,30.14,North,352,3.0,7.0,78,0.00,,,0.00,meteohub,2013-03-07 03:42:00,
2013-03-06 22:47:00,31.1,25.0,30.14,SE,135,4.0,7.0,78,0.00,,,0.00,meteohub,2013-03-07 03:47:00,
2013-03-06 22:52:00,31.1,25.0,30.14,NNW,336,1.0,7.0,78,0.00,,,0.00,meteohub,2013-03-07 03:52:00,
2013-03-06 22:57:00,31.1,25.0,30.14,NE,37,3.0,7.0,78,0.00,,,0.00,meteohub,2013-03-07 03:57:00,
2013-03-06 23:02:00,31.1,25.0,30.14,NNW,342,4.0,7.0,78,0.00,,,0.00,meteohub,2013-03-07 04:02:00,
2013-03-06 23:07:00,30.9,25.2,30.15,NNW,330,4.0,6.0,79,0.00,,,0.00,meteohub,2013-03-07 04:07:00,
2013-03-06 23:12:00,30.9,25.2,30.14,South,173,0.0,6.0,79,0.00,,,0.00,meteohub,2013-03-07 04:12:00,
2013-03-06 23:17:00,30.9,25.2,30.14,NNW,341,4.0,6.0,79,0.00,,,0.00,meteohub,2013-03-07 04:17:00,
2013-03-06 23:22:00,30.9,24.8,30.14,SSW,204,1.0,8.0,78,0.00,,,0.00,meteohub,2013-03-07 04:22:00,
2013-03-06 23:27:00,30.9,24.8,30.14,ENE,71,1.0,8.0,78,0.00,,,0.00,meteohub,2013-03-07 04:27:00,
2013-03-06 23:32:00,30.7,25.0,30.14,South,187,1.0,8.0,79,0.00,,,0.00,meteohub,2013-03-07 04:32:00,
2013-03-06 23:38:00,30.7,25.0,30.14,NNW,340,1.0,7.0,79,0.00,,,0.00,meteohub,2013-03-07 04:38:00,
2013-03-06 23:43:00,30.7,25.0,30.14,North,7,0.0,7.0,79,0.00,,,0.00,meteohub,2013-03-07 04:43:00,
2013-03-06 23:48:00,30.7,25.3,30.14,SW,229,0.0,7.0,80,0.00,,,0.00,meteohub,2013-03-07 04:48:00,
2013-03-06 23:53:00,30.7,25.3,30.14,WNW,301,0.0,6.0,80,0.00,,,0.00,meteohub,2013-03-07 04:53:00,
2013-03-06 23:58:00,30.6,25.2,30.14,North,356,0.0,5.0,80,0.00,,,0.00,meteohub,2013-03-07 04:58:00,